Regional Weather Roundup
Issued by NWS

Home | Current Version | Previous Version | Graphics & Text | Print | Product List | Glossary On
Versions: 1 2 3 4 5 6 7 8 9 10 11 12 13 14 15 16 17 18 19 20 21 22 23 24 25 26 27 28 29 30 31 32 33 34 35 36 37 38 39 40 41 42 43 44 45 46 47 48 49 50
649
ASUS44 KLIX 260101
RWRLA
LOUISIANA WEATHER ROUNDUP
NATIONAL WEATHER SERVICE NEW ORLEANS LA
800 PM CDT FRI JUL 25 2014

NOTE: "FAIR" INDICATES FEW OR NO CLOUDS BELOW 12,000 FEET WITH NO
      SIGNIFICANT WEATHER AND/OR OBSTRUCTIONS TO VISIBILITY.
      SKY/WX - SKY CONDITION AND SIGNIFICANT WEATHER.
      TMP - AIR TEMPERATURE.    DP   - DEWPOINT TEMPERATURE.
      RH  - RELATIVE HUMIDITY.  PRES - PRESSURE.
      HX  - HEAT INDEX.         WCI  - WIND CHILL INDEX.

*  THESE STATIONS ARE NOT NWS OR FAA STATIONS AND ARE NOT UNDER
   NWS QUALITY CONTROL.

LAZ040-048-061>063-065-066-069-260200-
SOUTHEAST LOUISIANA

CITY           SKY/WX    TMP DP  RH WIND       PRES   REMARKS
N.O. AUDUBON     N/A     84  76  76 MISG        N/A
N.O. INTL ARPT CLOUDY    82  76  81 S7        29.99R
N.O. LAKEFRONT CLOUDY    84  74  71 SW12      30.00R
N.O. DOWNTOWN* FAIR      84  72  65 SW3       30.00R
SLIDELL        MOCLDY    84  76  76 SW3       29.98R
BATON ROUGE    MOCLDY    85  73  67 SW7       29.97S
BOOTHVILLE     PTCLDY    84  76  76 SW9       30.01R
BELLE CHASSE   CLOUDY    80  73  79 SW3       29.99R
BOGALUSA*      MOCLDY    83  74  74 NE6       29.99S
GALLIANO*      NOT AVBL
NEW ROADS*     FAIR      87  76  71 S5        29.97S HX  97
GONZALES*      TSTM      78  78 100 S8        29.99R
HAMMOND*       MOCLDY    84  73  70 S5        30.00R
HOUMA*         MOCLDY    83  73  70 CALM      29.99R
PORT FOURCHON* CLEAR     84  75  74 SW10      30.02R

$$

LAZ041-044-053-054-260200-
SOUTHWEST LOUISIANA

CITY           SKY/WX    TMP DP  RH WIND       PRES   REMARKS
LAKE CHARLES   PTCLDY    82  76  81 S5        29.98R
LAFAYETTE      PTCLDY    83  76  79 SW6       29.98S
PATTERSON      MOCLDY    82  73  74 SW6       30.03S
SALT POINT       N/A     88  76  67 VRB6      29.99S HX  99
NEW IBERIA     CLOUDY    83  76  79 CALM      29.99S
CHENAULT AIRPK PTCLDY    86  75  70 S8        29.99R HX  95

$$

LAZ027-028-260200-
CENTRAL LOUISIANA

CITY           SKY/WX    TMP DP  RH WIND       PRES   REMARKS
FORT POLK      CLEAR     89  72  56 CALM      29.98R HX  96
ALEXANDRIA INT CLEAR     86  76  71 CALM      29.95S HX  96
ALEXANDRIA     PTCLDY    85  77  77 CALM      29.97S HX  95

$$

LAZ001-002-260200-
NORTHWEST LOUISIANA

CITY           SKY/WX    TMP DP  RH WIND       PRES   REMARKS
SHREVEPORT     MOCLDY    88  73  61 S3        29.95F HX  95
BARKSDALE AFB  DRIZZLE   85  75  74 E5        29.96S
DTN SHREVEPORT MOCLDY    89  72  56 CALM      29.95S HX  96

$$

LAZ014-016-260200-
NORTHEAST LOUISIANA

CITY           SKY/WX    TMP DP  RH WIND       PRES   REMARKS
MONROE         PTCLDY    84  77  79 CALM      29.96F
TALLULAH       PTCLDY    82  75  79 E3        29.98R

$$




USA.gov is the U.S. government's official web portal to all federal, state and local government web resources and services.